Location: *
(43.4667°N, 11.6833°E)
Time: 03:01:34
(UTC+00:00)

Cosmos 1763 Rocket - Pass Details

Date: 19 July 2019
Orbit: 732 x 780 km, 74.0° (Epoch: 21 August)

Event Time Altitude Azimuth Distance (km) Brightness Sun altitude
Rises 22:59:30 0° 333° (NNW) 3,213 7.8 -25.6°
Reaches altitude 10° 23:01:56 10° 327° (NNW) 2,291 6.7 -25.6°
Enters shadow 23:06:49 44° 258° (WSW) 1,054 4.1 -25.7°
